Location: Newark
(51.3318°N, 0.0053°E)
Time: 06:39:29
(UTC+00:00)

LO-87 - Pass Details

Date: 01 July 2022
Orbit: 450 x 466 km, 97.4° (Epoch: 15 August)

Event Time Altitude Azimuth Distance (km) Brightness Sun altitude
Exits shadow 23:23:54 32° 165° (SSE) 818 ? -15.1°
Maximum altitude 23:25:25 89° 72° (ENE) 470 ? -15.1°
Drops below altitude 10° 23:28:55 10° 347° (NNW) 1,631 ? -15.2°
Sets 23:30:59 0° 347° (NNW) 2,516 ? -15.3°
